| time (UTC) | temp C | wind direction | speed KPH | gust KPH | rain 1hr cm | rain 24hr cm | rain mn cm | humidity % | barometer mb |
| 20260906052111 | 16 | 0.0 | 0.0 | 0.00 | 0.00 | 0.00 | 74 | 1024.3 | |
| 20260906051111 | 18 | 0.0 | 0.0 | 0.00 | 0.00 | 0.00 | 64 | 1024.3 | |
| 20260906050111 | 18 | 0.0 | 0.0 | 0.00 | 0.00 | 0.00 | 61 | 1024.7 | |
| 20260906045111 | 20 | 0.0 | 0.0 | 0.00 | 0.00 | 0.00 | 58 | 1024.1 | |
| 20260906044111 | 20 | 0.0 | 0.0 | 0.00 | 0.00 | 0.00 | 61 | 1023.9 | |
| 20260906043111 | 18 | 0.0 | 0.0 | 0.00 | 0.00 | 0.00 | 65 | 1024.0 | |
| 20260906042111 | 17 | 0.0 | 0.0 | 0.00 | 0.00 | 0.00 | 66 | 1024.0 | |
| 20260906041111 | 17 | 0.0 | 0.0 | 0.00 | 0.00 | 0.00 | 67 | 1024.2 | |
| 20260906040111 | 17 | 0.0 | 0.0 | 0.00 | 0.00 | 0.00 | 67 | 1024.0 | |
| 20260906035111 | 17 | 0.0 | 0.0 | 0.00 | 0.00 | 0.00 | 70 | 1023.9 | |
| 20260906034111 | 15 | 0.0 | 0.0 | 0.00 | 0.00 | 0.00 | 77 | 1023.2 | |
| 20260906033111 | 15 | 0.0 | 0.0 | 0.00 | 0.00 | 0.00 | 77 | 1023.1 | |
| 20260906032111 | 16 | 0.0 | 0.0 | 0.00 | 0.00 | 0.00 | 75 | 1023.0 | |
| 20260906031111 | 15 | 0.0 | 0.0 | 0.00 | 0.00 | 0.00 | 81 | 1023.0 | |
| 20260906030111 | 15 | 0.0 | 0.0 | 0.00 | 0.00 | 0.00 | 82 | 1022.9 | |
| 20260906025111 | 15 | 0.0 | 0.0 | 0.00 | 0.00 | 0.00 | 79 | 1022.8 | |
| 20260906024111 | 15 | 0.0 | 0.0 | 0.00 | 0.00 | 0.00 | 77 | 1022.9 | |
| 20260906023111 | 16 | 0.0 | 0.0 | 0.00 | 0.00 | 0.00 | 70 | 1022.8 | |
| 20260906022111 | 16 | 0.0 | 0.0 | 0.00 | 0.00 | 0.00 | 71 | 1022.7 | |
| 20260906021111 | 16 | 0.0 | 0.0 | 0.00 | 0.00 | 0.00 | 74 | 1022.7 | |
| 20260906020111 | 16 | 0.0 | 0.0 | 0.00 | 0.00 | 0.00 | 75 | 1022.8 | |
| 20260906015111 | 15 | 0.0 | 0.0 | 0.00 | 0.00 | 0.00 | 78 | 1022.8 | |
| 20260906014111 | 16 | 0.0 | 0.0 | 0.00 | 0.00 | 0.00 | 75 | 1022.7 | |
| 20260906013111 | 15 | 0.0 | 0.0 | 0.00 | 0.00 | 0.00 | 77 | 1022.8 | |
| 20260906012111 | 15 | 0.0 | 0.0 | 0.00 | 0.00 | 0.00 | 77 | 1022.8 | |
| 20260906011111 | 16 | 0.0 | 0.0 | 0.00 | 0.00 | 0.00 | 74 | 1022.8 | |
| 20260906010111 | 16 | 0.0 | 0.0 | 0.00 | 0.00 | 0.00 | 71 | 1022.8 | |
| 20260906005111 | 16 | 0.0 | 0.0 | 0.00 | 0.00 | 0.00 | 69 | 1022.7 | |
| 20260906004111 | 18 | 0.0 | 0.0 | 0.00 | 0.00 | 0.00 | 65 | 1022.8 | |
| 20260906003111 | 17 | 0.0 | 0.0 | 0.00 | 0.00 | 0.00 | 66 | 1022.8 | |
| 20260906002111 | 17 | 0.0 | 0.0 | 0.00 | 0.00 | 0.00 | 67 | 1022.8 | |
| 20260906001111 | 18 | 0.0 | 0.0 | 0.00 | 0.00 | 0.00 | 68 | 1023.0 | |
| 20260906000111 | 17 | 0.0 | 0.0 | 0.00 | 0.00 | 0.00 | 69 | 1023.1 | |
| 20260905235111 | 17 | 0.0 | 0.0 | 0.00 | 0.00 | 0.00 | 73 | 1023.2 | |
| 20260905234111 | 17 | 0.0 | 0.0 | 0.00 | 0.00 | 0.00 | 70 | 1023.1 | |
| 20260905233111 | 18 | 0.0 | 0.0 | 0.00 | 0.00 | 0.00 | 68 | 1022.9 | |
| 20260905232111 | 17 | 0.0 | 0.0 | 0.00 | 0.00 | 0.00 | 69 | 1023.1 | |
| 20260905231111 | 17 | 0.0 | 0.0 | 0.00 | 0.00 | 0.00 | 71 | 1023.1 | |
| 20260905230111 | 16 | 0.0 | 0.0 | 0.00 | 0.00 | 0.00 | 75 | 1023.3 | |
| 20260905225111 | 16 | 0.0 | 0.0 | 0.00 | 0.00 | 0.00 | 75 | 1023.3 | |
| 20260905224111 | 17 | 0.0 | 0.0 | 0.00 | 0.00 | 0.00 | 73 | 1023.2 | |
| 20260905223111 | 17 | 0.0 | 0.0 | 0.00 | 0.00 | 0.00 | 74 | 1023.1 | |
| 20260905221806 | 18 | 0.0 | 0.0 | 0.00 | 0.00 | 0.00 | 70 | 1023.2 | |
| 20260905220806 | 18 | 0.0 | 0.0 | 0.00 | 0.00 | 0.00 | 65 | 1022.9 | |
| 20260905215806 | 20 | 0.0 | 0.0 | 0.00 | 0.00 | 0.00 | 63 | 1022.8 | |
| 20260905214806 | 20 | 0.0 | 0.0 | 0.00 | 0.00 | 0.00 | 63 | 1022.9 | |
| 20260905213806 | 20 | 0.0 | 0.0 | 0.00 | 0.00 | 0.00 | 64 | 1022.8 | |
| 20260905212806 | 20 | 0.0 | 0.0 | 0.00 | 0.00 | 0.00 | 65 | 1022.7 | |
| 20260905211806 | 20 | 0.0 | 0.0 | 0.00 | 0.00 | 0.00 | 64 | 1022.7 | |
| 20260905210806 | 20 | 0.0 | 0.0 | 0.00 | 0.00 | 0.00 | 65 | 1022.5 | |
| 20260905205806 | 20 | 0.0 | 0.0 | 0.00 | 0.00 | 0.00 | 65 | 1022.6 | |
| 20260905204806 | 19 | 0.0 | 0.0 | 0.00 | 0.00 | 0.00 | 65 | 1022.4 | |
| 20260905203806 | 20 | 0.0 | 0.0 | 0.00 | 0.00 | 0.00 | 65 | 1022.3 | |
| 20260905202806 | 19 | 0.0 | 0.0 | 0.00 | 0.00 | 0.00 | 66 | 1022.2 | |
| 20260905201806 | 19 | 0.0 | 0.0 | 0.00 | 0.00 | 0.00 | 67 | 1022.1 | |
| 20260905200806 | 19 | 0.0 | 0.0 | 0.00 | 0.00 | 0.00 | 65 | 1021.8 | |
| 20260905195806 | 19 | 0.0 | 0.0 | 0.00 | 0.00 | 0.00 | 67 | 1021.8 | |
| 20260905194806 | 20 | 0.0 | 0.0 | 0.00 | 0.00 | 0.00 | 66 | 1021.8 | |
| 20260905193806 | 20 | 0.0 | 0.0 | 0.00 | 0.00 | 0.00 | 66 | 1021.8 | |
| 20260905192806 | 19 | 0.0 | 0.0 | 0.00 | 0.00 | 0.00 | 67 | 1021.8 | |
| 20260905191806 | 19 | 0.0 | 0.0 | 0.00 | 0.00 | 0.00 | 67 | 1022.0 | |
| 20260905190806 | 19 | 0.0 | 0.0 | 0.00 | 0.00 | 0.00 | 66 | 1021.9 | |
| 20260905185806 | 19 | 0.0 | 0.0 | 0.00 | 0.00 | 0.00 | 67 | 1022.0 | |
| 20260905184806 | 19 | 0.0 | 0.0 | 0.00 | 0.00 | 0.00 | 68 | 1021.8 | |
| 20260905183806 | 19 | 0.0 | 0.0 | 0.00 | 0.00 | 0.00 | 67 | 1021.9 | |
| 20260905182806 | 20 | 0.0 | 0.0 | 0.00 | 0.00 | 0.00 | 66 | 1021.9 | |
| 20260905181806 | 19 | 0.0 | 0.0 | 0.00 | 0.00 | 0.00 | 68 | 1021.7 | |
| 20260905180806 | 20 | 0.0 | 0.0 | 0.00 | 0.00 | 0.00 | 65 | 1021.8 | |
| 20260905175806 | 19 | 0.0 | 0.0 | 0.00 | 0.00 | 0.00 | 66 | 1021.7 | |
| 20260905174806 | 20 | 0.0 | 0.0 | 0.00 | 0.00 | 0.00 | 65 | 1021.6 | |
| 20260905173806 | 20 | 0.0 | 0.0 | 0.00 | 0.00 | 0.00 | 66 | 1021.3 | |
| 20260905172806 | 20 | 0.0 | 0.0 | 0.00 | 0.00 | 0.00 | 66 | 1021.5 | |
| 20260905171806 | 20 | 0.0 | 0.0 | 0.00 | 0.00 | 0.00 | 65 | 1021.4 | |
| 20260905170806 | 20 | 0.0 | 0.0 | 0.00 | 0.00 | 0.00 | 65 | 1021.5 | |
| 20260905165806 | 20 | 0.0 | 0.0 | 0.00 | 0.00 | 0.00 | 68 | 1020.7 | |
| 20260905164806 | 20 | 0.0 | 0.0 | 0.00 | 0.00 | 0.00 | 66 | 1020.6 | |
| 20260905162810 | 21 | 0.0 | 0.0 | 0.00 | 0.00 | 0.00 | 58 | 1020.7 | |
| 20260905161809 | 22 | 0.0 | 0.0 | 0.00 | 0.00 | 0.00 | 48 | 1019.7 | |
| 20260905160806 | 23 | 0.0 | 0.0 | 0.00 | 0.00 | 0.00 | 45 | 1019.7 | |
| 20260905155806 | 23 | 0.0 | 0.0 | 0.00 | 0.00 | 0.00 | 43 | 1019.6 | |
| 20260905154829 | 23 | 0.0 | 0.0 | 0.00 | 0.00 | 0.00 | 42 | 1019.2 | |
| 20260905152806 | 23 | 0.0 | 0.0 | 0.00 | 0.00 | 0.00 | 39 | 1019.2 | |
| 20260905151806 | 24 | 0.0 | 0.0 | 0.00 | 0.00 | 0.00 | 37 | 1019.3 | |
| 20260905150806 | 25 | 0.0 | 0.0 | 0.00 | 0.00 | 0.00 | 35 | 1019.2 | |
| 20260905145813 | 25 | 0.0 | 0.0 | 0.00 | 0.00 | 0.00 | 34 | 1019.2 | |
| 20260905143806 | 26 | 0.0 | 0.0 | 0.00 | 0.00 | 0.00 | 33 | 1018.5 | |
| 20260905142806 | 27 | 0.0 | 0.0 | 0.00 | 0.00 | 0.00 | 32 | 1018.3 | |
| 20260905141806 | 27 | 0.0 | 0.0 | 0.00 | 0.00 | 0.00 | 32 | 1018.1 | |
| 20260905140806 | 27 | 0.0 | 0.0 | 0.00 | 0.00 | 0.00 | 33 | 1018.1 | |
| 20260905135806 | 28 | 0.0 | 0.0 | 0.00 | 0.00 | 0.00 | 33 | 1018.1 | |
| 20260905134806 | 30 | 0.0 | 0.0 | 0.00 | 0.00 | 0.00 | 28 | 1017.7 | |
| 20260905133808 | 32 | 0.0 | 0.0 | 0.00 | 0.00 | 0.00 | 24 | 1017.3 | |
| 20260905132806 | 35 | 0.0 | 0.0 | 0.00 | 0.00 | 0.00 | 24 | 1016.6 | |
| 20260905131807 | 37 | 0.0 | 0.0 | 0.00 | 0.00 | 0.00 | 21 | 1016.2 | |
| 20260905130806 | 40 | 0.0 | 0.0 | 0.00 | 0.00 | 0.00 | 17 | 1015.7 | |
| 20260905125806 | 48 | 0.0 | 0.0 | 0.00 | 0.00 | 0.00 | 10 | 1015.1 | |
| 20260905124806 | 46 | 0.0 | 0.0 | 0.00 | 0.00 | 0.00 | 11 | 1015.2 | |
| 20260905123806 | 45 | 0.0 | 0.0 | 0.00 | 0.00 | 0.00 | 12 | 1015.3 | |
| 20260905122806 | 47 | 0.0 | 0.0 | 0.00 | 0.00 | 0.00 | 11 | 1015.3 | |
| 20260905121806 | 42 | 0.0 | 0.0 | 0.00 | 0.00 | 0.00 | 15 | 1015.7 | |
| 20260905120806 | 45 | 0.0 | 0.0 | 0.00 | 0.00 | 0.00 | 13 | 1015.8 | |
| 20260905115806 | 43 | 0.0 | 0.0 | 0.00 | 0.00 | 0.00 | 14 | 1015.9 | |
| 20260905114806 | 40 | 0.0 | 0.0 | 0.00 | 0.00 | 0.00 | 16 | 1016.1 | |
| 20260905113806 | 42 | 0.0 | 0.0 | 0.00 | 0.00 | 0.00 | 15 | 1016.0 | |
| 20260905112806 | 42 | 0.0 | 0.0 | 0.00 | 0.00 | 0.00 | 15 | 1016.1 | |
| 20260905111806 | 41 | 0.0 | 0.0 | 0.00 | 0.00 | 0.00 | 16 | 1016.3 | |
| 20260905110806 | 40 | 0.0 | 0.0 | 0.00 | 0.00 | 0.00 | 17 | 1016.3 | |
| 20260905105806 | 39 | 0.0 | 0.0 | 0.00 | 0.00 | 0.00 | 19 | 1016.5 | |
| 20260905104806 | 37 | 0.0 | 0.0 | 0.00 | 0.00 | 0.00 | 19 | 1016.6 | |
| 20260905103806 | 33 | 0.0 | 0.0 | 0.00 | 0.00 | 0.00 | 27 | 1016.8 | |
| 20260905102806 | 31 | 0.0 | 0.0 | 0.00 | 0.00 | 0.00 | 29 | 1016.9 | |
| 20260905101806 | 32 | 0.0 | 0.0 | 0.00 | 0.00 | 0.00 | 28 | 1016.7 | |
| 20260905100806 | 32 | 0.0 | 0.0 | 0.00 | 0.00 | 0.00 | 29 | 1016.8 | |
| 20260905095806 | 32 | 0.0 | 0.0 | 0.00 | 0.00 | 0.00 | 28 | 1016.9 | |
| 20260905094806 | 32 | 0.0 | 0.0 | 0.00 | 0.00 | 0.00 | 28 | 1017.0 | |
| 20260905093806 | 32 | 0.0 | 0.0 | 0.00 | 0.00 | 0.00 | 28 | 1017.1 | |
| 20260905092806 | 32 | 0.0 | 0.0 | 0.00 | 0.00 | 0.00 | 29 | 1017.2 | |
| 20260905091806 | 32 | 0.0 | 0.0 | 0.00 | 0.00 | 0.00 | 29 | 1017.4 | |
| 20260905090806 | 32 | 0.0 | 0.0 | 0.00 | 0.00 | 0.00 | 28 | 1017.4 | |
| 20260905085806 | 32 | 0.0 | 0.0 | 0.00 | 0.00 | 0.00 | 26 | 1017.3 | |
| 20260905084806 | 34 | 0.0 | 0.0 | 0.00 | 0.00 | 0.00 | 25 | 1017.2 | |
| 20260905083915 | 33 | 0.0 | 0.0 | 0.00 | 0.00 | 0.00 | 25 | 1017.4 | |
| 20260905081806 | 34 | 0.0 | 0.0 | 0.00 | 0.00 | 0.00 | 24 | 1017.6 | |
| 20260905075806 | 32 | 0.0 | 0.0 | 0.00 | 0.00 | 0.00 | 27 | 1017.8 | |
| 20260905074806 | 34 | 0.0 | 0.0 | 0.00 | 0.00 | 0.00 | 24 | 1017.8 | |
| 20260905073806 | 34 | 0.0 | 0.0 | 0.00 | 0.00 | 0.00 | 24 | 1017.9 | |
| 20260905072806 | 35 | 0.0 | 0.0 | 0.00 | 0.00 | 0.00 | 23 | 1017.9 | |
| 20260905071806 | 33 | 0.0 | 0.0 | 0.00 | 0.00 | 0.00 | 26 | 1018.1 | |
| 20260905070806 | 35 | 0.0 | 0.0 | 0.00 | 0.00 | 0.00 | 24 | 1018.1 | |
| 20260905065810 | 33 | 0.0 | 0.0 | 0.00 | 0.00 | 0.00 | 26 | 1018.2 | |
| 20260905064806 | 34 | 0.0 | 0.0 | 0.00 | 0.00 | 0.00 | 24 | 1018.2 | |
| 20260905063811 | 33 | 0.0 | 0.0 | 0.00 | 0.00 | 0.00 | 27 | 1018.3 | |
| 20260905061806 | 32 | 0.0 | 0.0 | 0.00 | 0.00 | 0.00 | 27 | 1018.4 | |
| 20260905060806 | 30 | 0.0 | 0.0 | 0.00 | 0.00 | 0.00 | 30 | 1018.3 | |
| 20260905055806 | 28 | 0.0 | 0.0 | 0.00 | 0.00 | 0.00 | 33 | 1018.5 | |
| 20260905054806 | 30 | 0.0 | 0.0 | 0.00 | 0.00 | 0.00 | 31 | 1018.6 | |
| 20260905053806 | 31 | 0.0 | 0.0 | 0.00 | 0.00 | 0.00 | 28 | 1018.5 | |
| 20260905052806 | 31 | 0.0 | 0.0 | 0.00 | 0.00 | 0.00 | 29 | 1018.5 |